Aldo Polo

Olheiro-Chefe - Ayacucho
29 Out 2028
Domingo
Processo

Personalidade

Adaptabilidade (7) Ambição (5) Controvérsia (2) Lealdade (17) Pressão (16) Profissionalismo (8) Espírito Esportivo (11) Temperamento (15)

Perfil

Estilo de Treinamento Democrático
Licença Continental C
Determinação 7
Gestão de Pessoas 3
Motivação 5
Disciplina 10
Satisfação no Trabalho
100%
Fadiga
0%
Função Olheiro-Chefe
Salário 21.3K p/s
Contrato 14.03.2030

Desempenho

Comportamento Bom
Eficácia do Treinamento
28%
Desenvolvimento do Jogador
40%
Prevenção de Lesões
15%
Implementação Tática
35%

Eventos Recentes

Participou de uma reunião de recrutamento 7d atrás
Recomendou um alvo de transferência 7d atrás
Participou de uma reunião de recrutamento 14d atrás
Recomendou um alvo de transferência 14d atrás
Participou de uma reunião de recrutamento 21d atrás
Recomendou um alvo de transferência 21d atrás
Participou de uma reunião de recrutamento 28d atrás
Recomendou um alvo de transferência 28d atrás

Monitorando agora

126
Jogador Clube Status Habilidade Confiança Observado Última observação Último voto
Johan Campaña Patriotas Ativo 115 / 107 40% 1 21.12.2027 -
Augusto Berrondo Tristán Suárez Ativo 112 / 119 40% 1 21.12.2027 -
Jeffrey Guerrero Alianza Lima Ativo 70 / 75 58% 1 28.06.2027 -
Hiroshi Mejía Alianza Lima Ativo 63 / 94 58% 1 01.06.2027 Aprovar
Jurgi Oteo Vicenza Ativo 96 / 98 40% 1 30.05.2027 -
Tony Springett Cheltenham Town Ativo 105 / 116 40% 4 28.05.2027 -
Malik Mothersille Stockport County Ativo 120 / 129 40% 5 26.05.2027 -
Ben Wiles Milton Keynes Dons Ativo 117 / 99 40% 1 26.05.2027 -
Rúben Rodrigues Bolton Wanderers Ativo 120 / 132 40% 3 25.05.2027 -
Malcolm Ebiowei Gillingham Ativo 108 / 93 40% 3 22.05.2027 -
Marcus McGuane Huddersfield Town Ativo 127 / 126 40% 3 21.05.2027 -
Darragh Burns Grimsby Town Ativo 87 / 102 40% 3 20.05.2027 -
Charles Vernam Grimsby Town Ativo 108 / 119 40% 3 18.05.2027 -
Sheyi Ojo Crewe Alexandra Ativo 126 / 129 40% 5 17.05.2027 -
Dale Taylor Blackpool Ativo 111 / 120 40% 5 16.05.2027 -
Ekain Orobengoa Real Sociedad Ativo 104 / 109 40% 2 14.05.2027 -
Giacomo Zecca Torres Ativo 114 / 118 40% 2 14.05.2027 -
Pablo García Gijón Ativo 97 / 124 40% 2 13.05.2027 -
Daniel Kyerewaa Reading Ativo 126 / 96 40% 7 12.05.2027 -
Jon Eceizabarrena Real Sociedad Ativo 89 / 87 40% 3 12.05.2027 -
Xavier Amaechi Plymouth Argyle Ativo 115 / 121 40% 3 11.05.2027 -
George Earthy Reading Ativo 122 / 130 40% 4 10.05.2027 -
Simone Mazzocchi Cosenza Ativo 130 / 103 40% 2 09.05.2027 -
Matty Stevens AFC Wimbledon Ativo 107 / 112 40% 1 09.05.2027 -
Job Ochieng Real Sociedad Ativo 105 / 125 40% 11 06.05.2027 -
Adam Phillips Northampton Town Ativo 121 / 116 40% 2 05.05.2027 -
Ar'jany Martha Rotherham United Ativo 123 / 105 40% 5 04.05.2027 -
Idris Kanu Barnet Ativo 89 / 105 40% 1 28.04.2027 -
Stephen Humphrys Bradford City Ativo 114 / 88 40% 1 28.04.2027 -
Ferland Mendy Real Madrid Ativo 130 / 154 40% 4 25.04.2027 -
Declan Frith Peterborough United Ativo 107 / 131 40% 2 22.04.2027 -
Lorent Tolaj Plymouth Argyle Ativo 118 / 140 40% 2 20.04.2027 -
Harry Anderson Bristol Rovers Ativo 93 / 97 40% 1 20.04.2027 -
Juan Pablo Gallego Fehervar Ativo 106 / 112 40% 5 18.04.2027 -
Lander Astiazarán Real Sociedad Ativo 102 / 90 40% 2 17.04.2027 -
Andy Rinomhota Reading Ativo 131 / 112 40% 2 16.04.2027 -
Alex Lowry Wycombe Wanderers Ativo 105 / 105 40% 3 12.04.2027 -
Rui Costa Port Vale Ativo 113 / 110 40% 5 07.04.2027 -
Paolo Yrizar Chernomorets Ativo 101 / 116 40% 5 31.03.2027 -
Mohammed Essien Hasaacas Ativo 98 / 118 40% 1 31.03.2027 -
Aaron Drinan Swindon Town Ativo 111 / 116 40% 2 30.03.2027 -
Aldahir Pérez Tijuana Ativo 113 / 120 40% 1 30.03.2027 -
Moussakoye Diallo Stade Malien Ativo 92 / 92 40% 2 28.03.2027 -
Paddy Lane Reading Ativo 120 / 119 40% 1 28.03.2027 -
Mees Rijks Bristol Rovers Ativo 116 / 102 40% 1 26.03.2027 -
Luis Caicedo Spartak 1918 Ativo 103 / 73 40% 2 24.03.2027 -
Daniel Valdelamar Yenisey Ativo 79 / 87 40% 1 24.03.2027 -
Brandon Hanlan Doncaster Rovers Ativo 114 / 98 40% 1 22.03.2027 -
Lautaro Calderón Asante Kotoko Ativo 98 / 76 40% 2 21.03.2027 -
Kamaldeen Essien Liberty Professionals Ativo 114 / 108 40% 1 19.03.2027 -
Armstrong Oko-Flex Levski Ativo 130 / 137 40% 2 18.03.2027 -
Ifeagwu Ojukwu Asante Kotoko Ativo 95 / 75 40% 1 18.03.2027 -
Vitalii Dakhnovskyi Bukovyna Ativo 125 / 110 40% 1 15.03.2027 -
David Wakaso WAFA Ativo 86 / 116 40% 1 13.03.2027 -
Oleksii Hutsuliak Polissia Ativo 136 / 106 40% 2 12.03.2027 -
Fábio Tavares Burton Albion Ativo 87 / 108 40% 1 10.03.2027 -
Luke Molyneux Doncaster Rovers Ativo 101 / 98 40% 1 08.03.2027 -
Milton Castagna Walsall Ativo 90 / 120 40% 1 07.03.2027 -
Mohamadou Kanté Crawley Town Ativo 104 / 143 40% 1 05.03.2027 -
Atsuki Ito Bolton Wanderers Ativo 128 / 129 40% 1 04.03.2027 -
Stephen Amankona Aduana Stars Ativo 83 / 104 40% 1 24.02.2027 -
Antonio Salado Ospitaletto Ativo 82 / 96 40% 1 23.02.2027 -
Ioannis Pittas CSKA Sofia Ativo 128 / 105 40% 3 20.02.2027 -
Derensili Sanches Fernandes Huddersfield Town Ativo 141 / 122 40% 1 20.02.2027 -
Dan Kemp Stevenage Ativo 123 / 94 40% 1 14.02.2027 -
Dylan Levitt Leyton Orient Ativo 109 / 117 40% 1 02.02.2027 -
Berna CSKA 1948 Ativo 105 / 109 40% 2 01.02.2027 -
Maksym Luniov Chornomorets Ativo 90 / 89 40% 1 01.02.2027 -
Harry Cornick AFC Wimbledon Ativo 117 / 98 40% 1 01.02.2027 -
Samuel Kalu Botev Plovdiv Ativo 125 / 97 40% 1 30.01.2027 -
Isaiah Jones Luton Town Ativo 119 / 124 40% 1 26.01.2027 -
Nathan Broadhead Wrexham Ativo 117 / 129 40% 1 23.01.2027 -
Darío Ramírez Real Sociedad Ativo 87 / 105 40% 1 19.01.2027 -
Jack Diamond Stockport County Ativo 113 / 128 40% 1 18.01.2027 -
Sondre Tronstad Blackburn Rovers Ativo 132 / 127 40% 1 14.01.2027 -
Moisés Velásquez Valletta Ativo 94 / 98 40% 1 11.01.2027 -
Will Swan Bradford City Ativo 115 / 105 40% 1 08.01.2027 -
Kyle Wootton Stockport County Ativo 111 / 111 40% 1 07.01.2027 -
Christian Annan Liberty Professionals Ativo 87 / 74 40% 1 14.12.2026 -
Vegard Erlien Tromso Ativo 116 / 106 40% 1 30.11.2026 -
Federico Martínez MFK Ruzomberok Ativo 119 / 127 40% 5 27.11.2026 -
Gaspar Duarte Rosario Central Ativo 120 / 128 40% 2 23.11.2026 -
Isaac Matondo Koper Ativo 125 / 125 40% 1 16.11.2026 -
Matej Trusa DAC Dunajska Streda Ativo 107 / 120 40% 1 14.11.2026 -
Callum Robinson Poltava Ativo 100 / 124 40% 1 12.11.2026 -
Erik Botheim Viking Ativo 129 / 103 40% 1 11.11.2026 -
Marcelo Torres Gimnasia La Plata Ativo 114 / 114 40% 3 28.10.2026 -
Daniel Karlsbakk Sarpsborg 08 Ativo 119 / 110 40% 2 28.10.2026 -
Jonathan Cañete Portuguesa Ativo 113 / 98 40% 2 26.10.2026 -
Richard Celis Zamora Ativo 113 / 104 40% 2 26.10.2026 -
Rodrigo Pollero Deportivo Tachira Ativo 111 / 120 40% 3 21.10.2026 -
César Magallan Estudiantes de Merida Ativo 102 / 104 40% 2 20.10.2026 -
Luciano Inverso Betis Ativo 111 / 124 40% 2 18.10.2026 -
José Balza Deportivo Tachira Ativo 105 / 108 40% 1 15.10.2026 -
Rodrigo Mosqueira Stjarnan Ativo 114 / 108 40% 1 10.10.2026 -
Maximiliano Gómez Nacional Ativo 129 / 133 40% 1 03.10.2026 -
Richard Figueroa Deportivo Lara Ativo 115 / 94 40% 2 30.09.2026 -
Albin Andersson Falkenberg Ativo 99 / 100 40% 1 27.09.2026 -
Kufre Ebong Niger Tornadoes Ativo 81 / 106 40% 1 26.09.2026 -
Ramiro Ruiz Rodríguez Atlético Tucumán Ativo 112 / 119 40% 3 24.09.2026 -
Gonzalo Tapia Palestino Ativo 96 / 105 40% 3 23.09.2026 -
Maximo Ingravidi Colón Ativo 90 / 97 40% 2 23.09.2026 -
Thiago Ponce Rosario Central Ativo 107 / 97 40% 1 17.09.2026 -
Agustín Bianciotti Metropolitanos Ativo 101 / 93 40% 1 15.09.2026 -
Ronaldo Peña Deportivo Lara Ativo 99 / 103 40% 1 12.09.2026 -
Diego Méndez Tacuarembo Ativo 88 / 108 40% 1 11.09.2026 -
José Pérez Portuguesa Ativo 94 / 99 40% 1 04.09.2026 -
Ronny Maza Aragua Ativo 89 / 85 40% 2 03.09.2026 -
Thomas Oliveri Defensa y Justicia Ativo 99 / 101 40% 1 03.09.2026 -
Marcos Cuenca Zaragoza Ativo 108 / 126 40% 2 31.08.2026 -
José Barragán Zamora Ativo 103 / 88 40% 1 27.08.2026 -
Jeriel De Santis Caracas Ativo 109 / 107 40% 1 19.08.2026 -
Fernando Román Defensa y Justicia Ativo 105 / 111 40% 1 17.08.2026 -
Heiderber Ramírez Deportivo Tachira Ativo 100 / 102 40% 1 15.08.2026 -
José Rivas Gamboa Trujillanos Ativo 103 / 109 40% 1 15.08.2026 -
Rafael Moreno Atletico Venezuela Ativo 112 / 102 40% 1 15.08.2026 -
Juan Camilo Pérez Carabobo Ativo 105 / 106 40% 2 13.08.2026 -
Rafael Arace Caracas Ativo 105 / 95 40% 1 13.08.2026 -
Francisco González Metilli Belgrano Ativo 117 / 121 40% 3 09.08.2026 -
Tomás Galván River Plate Ativo 115 / 114 40% 1 09.08.2026 -
Nahuel González Alvarado Ativo 95 / 85 40% 1 08.08.2026 -
Kevin González Trujillanos Ativo 110 / 99 40% 1 08.08.2026 -
Juan Perdomo Deportivo La Guaira Ativo 99 / 116 40% 1 05.08.2026 -
Luciano Cingolani Gimnasia y Esgrima Ativo 99 / 110 40% 2 04.08.2026 -
Francisco Casanova Cerrito Ativo 104 / 86 40% 1 02.08.2026 -
Miguel Silva Carabobo Ativo 97 / 115 40% 1 02.08.2026 -